SCOUT B DEB, 29170

Orbit data source: Space-Track

SCOUT B DEB, 29170 is space debris in LEO originally from a launch on Tue, 10 Aug 1965 UTC launched from the Wallops Island (WLPIS). Debris objects in space refer to the collection of defunct objects orbiting the Earth. Examples of debris include non-operational satellites, rocket bodies, and fragments generated from explosions, collisions, or faulty payload assembly.

Loading next visibility...
Identifier
29170, 1965-063U
Orbit
LEO
Country
Flag of USUS
Related business
Manufacturer
Unknown
Mission
Spacecraft
Bus & Motor
Unknown
Mass
Unknown
Launch date (UTC)
1965-08-10 (61 years ago)
Launch vehicle
Unknown
Launch site
Wallops Island (WLPIS)
Object type
Payload
Rocket body
Debris
Shape & HBR
Unknown shape, 0.1 m
Radar Cross Section
Small (<0.1 m²)

Expand to show TLE details & history
Last TLE update: 2 days ago

TLE from 2 days ago
0 SCOUT B DEB
1 29170U 65063U   26101.94937676  .00000892  00000-0  58496-2 0  9993
2 29170  69.2250 355.3999 0749996  48.5660 333.5014 11.90422293 74420
Epoch: 2026-04-11T22:47Z
TLE epoch observation values (Epoch: 2026-04-11T22:47:06.152Z)
Latitude
16.68828°
Longitude
179.95965°
Altitude
1,191.626 km
Speed
7.495 km/s
True Right ascension
00h 07m 35s
True Declination
16° 35' 58"
Sunlit
Object was in daylight at epoch
Visualization orbit readout
Latitude
Unknown
Longitude
Unknown
Altitude
Unknown
Speed
Unknown
Apparent Right ascension
Unknown
Apparent Declination
Unknown
Sunlit
N/A
Visualization observer readout
Local Sidereal Time
15:38:01
Azimuth
Unknown
Elevation
Unknown
Doppler factor
Unknown
Orbital elements
Apogee altitude
2,329.859 km
Perigee altitude
1,114.796 km
Semi-major axis
8,100.465 km
Eccentricity
0.075
Inclination
69.225°
RAAN
355.3999°
Arg. of periapsis
48.566°
True anomaly
329.32082°
Mean anomaly
333.5014°
Eccentric anomaly
331.44751°
Mean motion
2.977 °/min
Orbital period
120.93 mins
BSTAR
0.0058496
Loading maneuver chart data...
Computing Atmospheric mass density...
Loading historical data...
Loading historical data...
Loading historical data...
Loading historical data...
Loading historical data...
Loading historical data...
Loading historical data...

Documentation

Showing up to 5 results
|